This is the latest recevied weather packets stored in our database for station/object EUGENE. If no packets are shown the sender has not sent any weather packets the latest 10 day(s).
| Time | Temp. | Humidity | Pressure | Rain* | Wind** | Luminosity | Snow |
|---|---|---|---|---|---|---|---|
| 1777335120 | 17.22° C | 56% | 1018.5 hPa | 0 mm | - | - | - |
| 1777334219 | 17.22° C | 57% | 1018.5 hPa | 0 mm | - | - | - |
| 1777333318 | 16.67° C | 57% | 1018.6 hPa | 0 mm | - | - | - |
| 1777332420 | 16.67° C | 56% | 1018.6 hPa | 0 mm | - | - | - |
| 1777331518 | 16.67° C | 59% | 1018.7 hPa | 0 mm | - | - | - |
| 1777330618 | 16.67° C | 59% | 1018.9 hPa | 0 mm | - | - | - |
| 1777329719 | 16.11° C | 58% | 1019 hPa | 0 mm | - | - | - |
| 1777328818 | 16.11° C | 60% | 1019.2 hPa | 0 mm | - | - | - |
| 1777327918 | 15.56° C | 63% | 1019.1 hPa | 0 mm | - | - | - |
| 1777327018 | 15° C | 65% | 1019.2 hPa | 0 mm | - | - | - |
| 1777326119 | 14.44° C | 67% | 1019.3 hPa | 0 mm | - | - | - |
| 1777325219 | 13.89° C | 65% | 1019.4 hPa | 0 mm | - | - | - |
| 1777324318 | 13.89° C | 66% | 1019.5 hPa | 0 mm | - | - | - |
| 1777323418 | 13.33° C | 66% | 1019.4 hPa | 0 mm | - | - | - |
| 1777322518 | 13.33° C | 68% | 1019.5 hPa | 0 mm | - | - | - |
| 1777321618 | 13.33° C | 68% | 1019.5 hPa | 0 mm | - | - | - |
| 1777320719 | 13.33° C | 67% | 1019.6 hPa | 0 mm | - | - | - |
| 1777319819 | 12.78° C | 68% | 1019.7 hPa | 0 mm | - | - | - |
| 1777318919 | 12.22° C | 69% | 1019.7 hPa | 0 mm | - | - | - |
| 1777318019 | 12.22° C | 70% | 1019.7 hPa | 0 mm | - | - | - |
| 1777317119 | 12.22° C | 70% | 1019.7 hPa | 0 mm | - | - | - |
| 1777316218 | 12.22° C | 70% | 1019.8 hPa | 0 mm | - | - | - |
| 1777315318 | 11.67° C | 72% | 1019.8 hPa | 0 mm | - | - | - |
| 1777314418 | 11.67° C | 73% | 1019.7 hPa | 0 mm | - | - | - |
| 1777313518 | 11.67° C | 72% | 1019.6 hPa | 0 mm | - | - | - |
* Rain latest hour (hover to see other rain measurements)
** Current wind speed in m/s (hover to see current wind gust speed)